Temperature
14 14 14 14 14 15 15 15 15 15 15 15 15 15 15 15 15 15 15 15 15 15 15 15 15 15 15 15 14 15 15 14 14 14 14 14 14 14 14 14 14 14 14
14 14 14 14 14 14 14 14 15 14 15 15 15 15 15 15 14 14 14 14 14 14 14 15 14 14 14 14 14 14 14 14 14 14 14 14 14 14 14 14 14 14 14
14 14 14 14 14 14 14 14 14 14 14 14 14 14 14 14 14 14 14 14 14 14 14 14 14 14 14 14 14 14 14 14 14 14 14 14 14 14 14 13 13 13 13
14 14 14 14 14 14 14 14 14 14 14 14 14 14 14 14 14 14 14 14 14 14 14 14 14 14 14 14 14 14 14 14 14 14 14 14 14 13 13 13 13 13 13
13 13 14 14 14 14 14 14 14 14 14 14 14 14 14 14 14 14 14 14 14 14 14 14 14 14 14 14 14 14 14 14 14 14 13 13 13 13 13 13 13 13 13
13 13 13 13 14 14 14 14 14 14 14 14 14 14 14 14 14 14 14 14 14 14 14 14 14 14 14 14 14 14 13 13 13 13 13 13 13 13 13 13 13 13 13
13 13 13 13 13 13 13 13 13 13 13 13 13 13 14 14 13 13 13 14 14 14 14 14 14 14 14 14 14 13 13 13 13 13 13 13 13 13 13 12 12 12 12
12 12 12 13 13 13 13 13 13 13 13 13 13 13 13 13 13 13 13 13 13 13 13 13 13 13 13 13 13 13 13 13 13 13 13 13 13 12 12 12 12 12 12
12 12 12 12 13 13 13 13 13 13 13 13 13 13 13 13 13 13 13 13 13 13 13 13 13 13 13 13 13 13 13 13 13 13 13 13 12 12 12 12 12 12 12
12 12 12 12 12 12 12 12 12 12 12 13 13 13 13 13 13 13 13 13 13 13 13 13 13 13 13 13 13 13 12 12 12 12 12 12 12 12 12 12 12 12 12
11 11 12 12 12 12 12 12 12 12 12 12 12 12 12 12 12 12 12 13 12 13 13 13 13 12 12 12 12 12 12 12 12 12 12 12 12 11 11 11 11 11 11
11 11 11 11 11 12 12 12 12 12 12 12 12 12 12 12 12 12 12 12 12 12 12 12 12 12 12 12 12 12 12 12 12 12 12 12 11 11 11 11 11 10 10
11 11 11 11 11 11 11 11 11 12 12 12 12 11 11 11 12 12 12 12 12 12 12 12 12 12 12 12 12 12 12 12 12 11 11 11 11 11 11 10 10 10 10
10 10 10 10 11 11 11 11 11 11 11 11 11 11 11 11 11 11 11 11 11 11 12 12 12 12 11 11 11 11 11 11 11 11 11 11 11 10 10 10 10 10 10
10 10 10 10 10 10 10 11 11 11 11 11 11 11 11 11 11 11 11 11 11 11 11 11 11 11 11 11 11 11 11 11 11 11 11 11 10 10 10 10 10 9 9
10 9 10 10 10 10 10 10 10 10 10 10 10 10 10 10 10 10 10 10 10 10 10 11 11 11 11 11 11 11 10 10 10 10 10 10 10 10 10 9 9 9 9
9 9 9 9 9 9 10 10 10 10 10 10 10 10 9 9 9 10 10 10 10 10 10 10 10 10 10 10 10 10 10 10 10 10 10 10 10 10 10 9 9 9 9
9 9 9 9 9 9 9 9 9 9 9 9 9 9 9 9 9 9 9 9 9 9 9 9 9 10 10 10 10 10 10 10 10 10 9 9 9 9 9 9 9 9 9
8 8 8 8 8 9 9 9 8 8 8 8 8 8 8 8 8 8 8 8 9 9 9 9 9 9 9 9 9 9 9 9 9 9 9 9 9 9 9 9 8 8 8
7 8 8 8 8 8 8 8 8 8 8 8 8 8 8 8 7 8 8 8 8 8 8 8 8 8 8 8 9 9 9 9 9 9 9 8 8 8 8 8 8 8 8
7 7 7 7 7 7 8 8 8 8 7 7 7 7 7 7 7 7 7 7 7 7 8 8 8 8 8 8 8 8 8 8 8 8 8 8 8 8 8 8 7 7 7
7 7 7 7 7 7 7 7 7 7 7 7 7 6 6 6 6 6 6 7 7 7 7 7 7 7 7 7 6 6 6 7 7 7 7 7 7 7 7 7 7 7 7
6 6 6 6 6 6 6 6 6 6 6 6 6 6 6 6 6 6 6 6 6 6 6 6 6 6 6 6 6 5 6 6 6 6 7 7 7 7 7 7 7 7 7
6 6 6 6 6 6 5 5 5 5 5 6 6 6 5 5 5 5 5 6 6 6 6 6 5 5 5 5 5 5 5 5 5 5 6 6 6 6 6 6 6 6 6
5 5 5 5 5 5 5 5 5 5 5 5 5 5 5 5 5 5 5 5 5 5 5 5 5 5 5 4 4 4 4 4 4 4 4 5 6 6 6 6 6 6 6
5 5 5 5 5 5 5 4 4 4 4 4 5 4 4 4 4 4 5 5 5 5 5 5 5 4 4 4 4 4 4 4 4 4 4 4 5 5 5 5 5 5 5
Wind_Speed
1 1 3 6 8 9 9 9 9 10 10 10 10 10 10 10 10 10 9 9 9 9 9 9 9 9 9 9 9 10 10 10 10 11 11 11 11 11 11 11 10 10 10
1 1 5 7 8 9 9 9 9 9 9 9 9 9 9 9 9 9 9 8 8 8 8 9 9 9 9 9 9 10 9 9 9 10 11 10 10 10 10 10 9 9 10
2 3 6 8 8 8 9 8 9 9 9 9 9 8 8 8 8 8 8 8 7 7 8 8 8 8 8 8 9 9 9 9 9 10 10 9 8 9 9 9 9 9 9
3 5 6 8 8 8 9 9 9 8 9 8 8 8 8 8 8 8 7 7 7 7 7 7 7 7 7 8 8 8 8 9 9 10 9 8 7 8 8 8 9 9 8
5 6 7 9 8 9 9 9 9 9 8 8 8 7 7 7 7 7 7 7 7 6 6 6 6 6 7 7 7 7 8 8 9 9 8 6 5 6 7 7 7 7 7
5 7 7 9 9 9 8 8 8 8 8 8 7 7 6 6 6 6 6 6 6 6 5 5 5 6 6 6 6 6 7 7 8 7 7 5 4 4 5 6 6 5 5
5 7 7 8 9 9 8 8 8 7 7 7 7 6 6 7 6 6 5 5 5 5 5 5 4 5 5 5 5 6 6 7 7 6 5 4 3 3 4 4 4 3 4
5 7 7 9 9 9 9 8 8 7 7 7 7 6 6 6 6 6 6 5 5 5 4 4 4 4 4 4 5 5 5 6 5 4 3 2 2 2 3 3 3 3 3
7 7 8 8 9 9 9 9 8 7 7 7 7 7 7 6 5 5 5 4 5 5 5 4 4 3 3 4 4 4 5 5 4 3 2 1 1 1 1 2 2 2 1
6 6 7 8 9 9 8 9 8 8 7 7 7 7 7 7 6 6 5 4 4 4 4 4 3 3 3 3 3 4 4 3 3 2 1 1 1 0 1 2 2 2 1
5 4 5 6 7 7 7 7 8 8 7 7 7 7 7 7 6 5 5 5 4 4 4 4 4 3 3 2 2 3 3 2 1 1 1 2 1 1 1 1 2 2 2
2 2 3 4 5 6 6 6 6 6 6 6 6 6 6 6 6 5 4 4 4 4 3 3 3 4 3 3 2 2 2 1 1 1 2 2 2 2 1 1 2 3 3
2 1 2 3 4 5 4 4 4 5 5 6 6 5 5 6 6 5 4 4 4 4 3 3 4 4 3 2 2 2 2 1 0 1 2 2 3 3 3 2 3 3 3
2 1 2 2 3 3 4 3 3 3 4 4 4 4 4 4 4 4 3 3 3 3 3 3 2 2 2 2 1 1 1 1 1 1 2 2 3 4 4 4 4 4 4
1 1 1 2 2 2 3 2 3 2 2 2 3 3 3 2 2 2 3 2 2 2 2 2 2 2 1 1 1 1 1 1 1 1 2 2 3 4 4 5 5 5 5
1 0 0 1 2 2 2 2 2 2 2 2 3 3 3 2 2 1 2 2 2 1 1 1 1 1 1 1 1 2 2 2 1 1 2 2 3 4 5 5 6 6 7
2 1 0 0 2 2 2 2 2 2 2 2 2 3 3 2 1 1 1 1 2 2 1 1 1 1 1 1 2 2 2 2 2 2 2 2 3 4 5 5 6 7 8
2 1 1 0 1 1 1 1 1 2 2 2 2 2 3 2 2 1 1 1 2 2 1 0 0 1 1 2 2 3 2 2 3 3 2 2 3 3 4 5 6 7 8
1 1 1 0 0 0 1 1 1 2 2 2 2 3 3 3 3 2 1 2 2 1 1 1 1 1 2 2 3 3 2 2 2 2 2 2 3 3 3 5 6 7 8
0 1 1 0 0 0 1 1 2 2 2 2 2 3 3 3 4 2 2 2 1 1 1 1 2 1 2 2 2 3 3 3 2 2 2 2 2 3 4 4 5 6 7
1 1 0 1 0 1 1 1 1 2 2 2 2 3 3 3 3 2 2 2 1 1 2 2 2 1 2 1 1 2 2 2 2 2 2 2 2 2 3 3 4 5 5
0 1 1 1 1 1 1 1 1 1 2 2 2 3 3 3 3 2 2 2 2 2 2 2 1 1 1 1 0 0 2 2 2 2 2 2 2 1 2 3 4 4 5
1 2 2 2 2 2 1 1 1 1 1 2 2 3 4 4 4 3 3 2 2 2 2 2 2 3 2 2 1 1 1 3 2 2 2 2 2 2 3 3 4 5 6
3 2 2 2 2 2 1 1 1 1 2 3 3 3 4 4 4 4 3 3 3 3 3 3 2 3 3 3 2 2 2 2 2 2 2 2 3 3 4 4 4 5 6
2 2 1 1 2 2 2 2 2 2 3 3 2 3 4 3 4 4 4 3 3 3 3 3 3 3 3 4 3 2 2 2 3 3 4 3 3 3 4 4 4 4 6
2 2 1 1 2 2 2 3 3 4 4 4 4 4 4 3 3 4 4 4 4 3 4 4 4 4 4 5 4 4 3 3 3 3 4 4 4 4 4 4 4 4 5
Wind_Direction
242 266 134 107 106 109 105 100 94 90 87 86 88 92 97 97 95 92 94 94 90 88 85 84 84 83 82 79 78 81 83 82 84 83 85 86 87 88 87 86 91 88 91
200 178 126 111 110 111 109 105 100 96 91 88 88 90 96 97 96 95 93 94 93 91 90 89 87 85 82 79 80 80 83 82 85 86 86 84 86 90 90 88 94 96 91
87 109 116 111 108 106 105 105 103 102 97 92 89 90 93 93 92 91 89 90 91 93 92 89 90 88 84 82 84 83 85 85 85 85 82 78 83 91 93 90 89 92 91
92 99 108 109 109 105 103 99 98 99 95 91 88 88 91 91 91 88 86 86 88 91 93 94 94 93 89 86 88 90 88 89 87 83 78 74 77 90 93 91 87 85 89
73 83 103 106 108 105 101 98 93 90 89 88 85 85 89 91 90 89 85 84 84 86 90 96 98 98 93 90 92 94 92 93 89 82 76 70 68 89 95 94 88 86 85
64 69 92 100 98 100 100 95 89 86 83 80 82 83 85 88 87 86 87 85 82 80 82 87 96 102 96 94 95 97 91 92 89 81 74 68 65 89 100 102 98 93 92
71 64 81 92 93 91 90 87 82 79 77 74 74 78 79 79 78 79 83 87 85 82 78 84 92 102 106 103 102 103 96 93 91 84 74 65 67 93 107 112 112 109 103
81 67 72 81 83 84 84 81 78 73 69 63 62 62 69 73 72 74 74 78 78 78 77 77 86 94 100 107 106 104 100 93 93 88 78 68 75 98 113 119 121 118 106
68 63 58 64 72 76 75 74 73 71 68 63 62 60 57 60 63 63 66 69 69 69 72 72 76 84 86 99 112 112 107 96 89 92 91 81 102 112 137 141 139 136 135
60 55 56 59 64 66 68 70 66 63 63 62 60 59 57 58 57 53 50 56 60 63 63 61 62 64 71 92 113 115 112 94 89 95 111 195 169 167 177 175 174 175 194
59 49 56 61 62 67 71 71 66 64 61 60 57 55 56 54 53 51 47 49 53 55 57 52 47 44 49 69 99 108 109 85 94 132 210 207 198 206 216 201 203 207 222
96 58 55 63 65 66 70 69 66 65 60 59 57 56 54 51 50 51 48 45 47 49 50 46 42 39 39 47 57 75 74 69 122 229 234 217 214 221 227 228 231 230 239
146 93 52 55 64 69 67 69 65 62 59 54 53 53 55 50 46 44 46 37 39 41 40 37 40 41 41 42 45 41 48 37 290 247 256 232 231 235 240 247 255 251 249
115 84 60 58 68 65 66 65 65 60 58 52 44 50 60 53 42 37 39 35 40 37 34 37 38 34 32 25 29 28 41 354 335 287 265 242 232 241 248 252 258 261 262
120 88 54 64 70 69 71 62 63 61 59 51 44 40 56 61 37 28 22 26 29 34 35 21 18 13 3 354 352 336 302 296 279 285 282 256 237 241 252 259 263 266 268
168 192 6 67 54 63 67 65 69 57 46 46 37 24 32 49 50 28 9 10 6 359 1 5 347 343 313 314 312 301 276 266 249 248 261 266 264 255 255 261 267 270 271
203 204 281 126 43 48 44 48 54 45 48 45 19 9 14 14 17 8 346 347 341 339 345 360 2 359 325 319 297 296 284 263 249 248 248 251 263 268 260 262 268 271 271
194 198 235 3 36 11 12 28 43 41 45 27 1 354 357 349 342 353 312 299 338 357 1 283 252 269 288 294 293 288 290 273 249 244 241 246 252 260 264 263 265 269 273
202 199 201 179 234 286 356 35 46 45 38 16 3 357 346 340 338 338 306 310 341 354 336 278 256 235 265 279 276 277 278 267 249 243 235 240 245 245 254 267 271 272 273
154 159 175 177 270 12 26 21 16 11 2 7 358 348 343 342 336 331 310 313 326 273 288 284 266 260 246 261 277 281 280 268 241 231 238 242 246 249 259 263 268 270 271
44 60 159 184 215 97 59 18 343 317 312 316 328 330 333 335 337 332 304 298 293 257 253 255 256 263 262 262 286 297 290 268 242 240 242 238 252 262 271 269 266 267 271
251 273 220 212 205 184 188 205 229 265 272 276 302 326 326 324 319 314 292 276 270 260 265 250 230 242 269 256 178 341 311 303 283 266 263 247 258 288 288 280 268 267 269
267 254 260 242 224 211 187 76 22 10 334 320 315 316 319 316 310 300 291 274 267 242 248 251 235 217 241 258 209 178 200 248 286 274 250 249 267 282 287 292 290 283 276
261 262 259 263 237 220 178 157 169 256 264 267 279 288 302 306 300 296 288 273 257 248 247 249 243 235 225 246 257 231 218 202 217 273 273 261 267 269 268 288 286 287 287
294 282 263 270 257 235 212 205 215 250 262 277 286 291 297 300 300 294 283 269 258 250 246 245 243 237 227 231 236 236 231 237 225 228 268 279 282 262 263 266 272 280 284
335 325 305 279 287 258 230 227 228 249 266 279 286 286 291 293 293 293 287 274 263 255 248 244 241 241 234 232 233 227 223 227 221 221 248 274 281 280 280 269 261 266 275
Height
1508 1509 1511 1512 1514 1515 1516 1517 1517 1518 1519 1519 1520 1521 1521 1522 1522 1522 1523 1523 1523 1524 1524 1524 1524 1525 1525 1525 1525 1526 1526 1527 1527 1527 1528 1528 1529 1529 1529 1530 1530 1531 1531
1508 1509 1511 1512 1514 1515 1516 1517 1518 1518 1519 1520 1520 1521 1521 1522 1522 1523 1523 1523 1524 1524 1524 1524 1524 1525 1525 1526 1526 1526 1527 1527 1528 1528 1528 1529 1529 1530 1530 1530 1531 1531 1532
1508 1510 1511 1513 1514 1515 1516 1517 1518 1519 1519 1520 1520 1521 1521 1522 1522 1523 1523 1523 1524 1524 1524 1524 1524 1525 1525 1526 1526 1526 1527 1527 1528 1528 1529 1529 1530 1530 1531 1531 1531 1532 1532
1508 1510 1511 1513 1514 1515 1516 1517 1518 1519 1519 1520 1520 1521 1521 1522 1522 1523 1523 1523 1524 1524 1524 1524 1525 1525 1525 1526 1526 1527 1527 1527 1528 1528 1529 1530 1530 1531 1531 1531 1532 1532 1532
1509 1510 1511 1513 1514 1515 1516 1517 1518 1519 1519 1520 1520 1521 1521 1522 1522 1522 1523 1523 1523 1524 1524 1524 1524 1525 1525 1526 1526 1527 1527 1528 1528 1529 1529 1530 1530 1531 1531 1531 1532 1532 1532
1509 1510 1511 1513 1514 1515 1516 1517 1518 1518 1519 1520 1520 1521 1521 1522 1522 1522 1522 1523 1523 1523 1524 1524 1524 1525 1525 1526 1526 1526 1527 1527 1528 1528 1529 1530 1530 1531 1531 1531 1531 1532 1532
1508 1510 1511 1513 1514 1515 1516 1517 1517 1518 1519 1519 1520 1520 1521 1521 1521 1521 1522 1522 1522 1523 1523 1524 1524 1524 1525 1525 1526 1526 1527 1527 1528 1528 1529 1529 1530 1530 1530 1531 1531 1531 1531
1508 1510 1511 1512 1513 1515 1515 1516 1517 1518 1518 1519 1519 1520 1520 1520 1520 1521 1521 1521 1522 1522 1522 1523 1523 1524 1524 1525 1525 1526 1526 1526 1527 1528 1528 1529 1529 1529 1529 1530 1530 1530 1530
1508 1509 1511 1512 1513 1514 1515 1516 1516 1517 1517 1518 1518 1518 1519 1519 1519 1520 1520 1520 1521 1521 1521 1522 1522 1523 1523 1524 1524 1525 1525 1526 1526 1527 1527 1527 1528 1528 1528 1528 1528 1529 1529
1508 1509 1510 1511 1512 1513 1514 1515 1515 1516 1516 1516 1517 1517 1517 1518 1518 1518 1519 1519 1519 1519 1520 1520 1521 1521 1522 1522 1523 1523 1524 1524 1525 1525 1526 1526 1527 1527 1527 1527 1527 1527 1527
1507 1508 1509 1510 1511 1512 1513 1513 1514 1514 1515 1515 1515 1515 1516 1516 1516 1517 1517 1517 1518 1518 1518 1519 1519 1520 1520 1521 1521 1522 1522 1523 1523 1524 1524 1525 1525 1525 1525 1525 1525 1525 1525
1506 1507 1508 1509 1510 1511 1511 1512 1512 1513 1513 1513 1514 1514 1514 1514 1515 1515 1515 1515 1516 1516 1516 1517 1517 1518 1518 1519 1519 1520 1520 1521 1521 1522 1522 1523 1523 1524 1524 1524 1524 1524 1524
1505 1506 1507 1508 1509 1509 1510 1510 1511 1511 1511 1511 1512 1512 1512 1512 1513 1513 1513 1513 1514 1514 1514 1515 1515 1515 1516 1516 1517 1517 1518 1518 1519 1519 1520 1520 1521 1521 1522 1522 1522 1522 1522
1504 1505 1506 1507 1507 1508 1508 1509 1509 1509 1509 1509 1510 1510 1510 1510 1510 1510 1511 1511 1511 1511 1512 1512 1512 1513 1514 1514 1514 1515 1515 1516 1516 1517 1517 1518 1518 1519 1519 1519 1519 1519 1519
1502 1503 1504 1505 1506 1506 1507 1507 1507 1507 1507 1508 1508 1508 1508 1508 1508 1508 1508 1508 1509 1509 1509 1509 1510 1510 1511 1511 1512 1512 1512 1513 1513 1514 1514 1515 1516 1516 1516 1517 1517 1517 1517
1500 1502 1503 1503 1504 1504 1505 1505 1505 1505 1505 1505 1505 1505 1505 1505 1505 1505 1505 1505 1506 1506 1506 1507 1507 1507 1508 1508 1508 1509 1509 1510 1510 1511 1511 1512 1513 1513 1513 1514 1514 1514 1514
1499 1500 1501 1501 1502 1502 1503 1503 1503 1503 1503 1503 1503 1503 1503 1503 1503 1502 1502 1503 1503 1503 1503 1504 1504 1504 1504 1505 1505 1505 1506 1506 1507 1507 1508 1509 1509 1510 1510 1510 1510 1511 1511
1497 1498 1499 1499 1500 1500 1501 1501 1501 1500 1500 1500 1500 1500 1500 1499 1499 1499 1499 1499 1500 1500 1500 1500 1500 1501 1501 1501 1501 1502 1502 1502 1503 1504 1504 1505 1506 1506 1507 1507 1507 1507 1507
1494 1495 1496 1497 1497 1498 1498 1498 1498 1498 1497 1497 1497 1497 1497 1496 1496 1496 1496 1496 1496 1497 1497 1497 1497 1497 1497 1497 1497 1498 1498 1499 1499 1500 1500 1501 1502 1502 1503 1503 1503 1503 1503
1492 1493 1493 1494 1495 1495 1495 1495 1495 1495 1494 1494 1494 1494 1494 1493 1493 1493 1493 1493 1493 1493 1493 1493 1493 1494 1494 1494 1494 1494 1495 1494 1495 1496 1497 1497 1498 1498 1498 1498 1498 1498 1499
1489 1490 1490 1491 1491 1492 1492 1492 1491 1491 1491 1491 1491 1491 1491 1490 1490 1490 1490 1489 1489 1489 1489 1490 1489 1490 1490 1490 1490 1490 1490 1491 1491 1491 1492 1493 1493 1494 1494 1494 1494 1494 1494
1486 1487 1488 1488 1488 1489 1489 1489 1489 1488 1488 1488 1488 1488 1488 1487 1487 1487 1486 1486 1486 1486 1486 1486 1486 1486 1486 1487 1487 1486 1486 1487 1486 1487 1488 1489 1489 1489 1489 1489 1490 1489 1489
1484 1484 1485 1485 1485 1485 1486 1486 1486 1486 1485 1485 1485 1485 1484 1484 1484 1484 1483 1483 1482 1482 1482 1482 1483 1482 1483 1483 1484 1485 1485 1483 1482 1483 1484 1485 1485 1485 1485 1485 1485 1485 1484
1481 1482 1482 1482 1482 1482 1482 1482 1482 1481 1481 1481 1481 1481 1481 1481 1480 1480 1480 1480 1479 1479 1479 1479 1479 1480 1480 1480 1480 1481 1482 1482 1481 1479 1479 1480 1481 1481 1481 1480 1480 1480 1479
1479 1479 1479 1479 1479 1479 1479 1479 1479 1478 1478 1478 1478 1477 1477 1477 1477 1476 1476 1476 1475 1475 1475 1475 1475 1476 1476 1476 1477 1477 1477 1478 1478 1477 1475 1474 1475 1476 1476 1476 1475 1475 1475
1476 1476 1476 1476 1476 1476 1476 1475 1475 1475 1474 1474 1473 1473 1473 1472 1472 1472 1472 1472 1471 1471 1471 1471 1471 1472 1472 1472 1473 1473 1473 1474 1473 1473 1472 1470 1470 1470 1470 1470 1470 1470 1470